Voltar ao catálogo

NOAA 16 DEB

AtivoSSO
NORAD 41301·DEBRIS·🇺🇸 United States

Lançado Sep 21, 2000 de Vandenberg Space Force Base

Loading…

Próximas Passagens (próximas 24 horas)

TLE

AtualizadoSource: Space-Track

Época: Sep 13, 2026, 08:06 UTC

1 41301U 00055HD  26256.33795082  .00002387  00000-0  10038-2 0  9991
2 41301  98.7048 296.9227 0018109 279.8720  80.0416 14.26680826552282

Acompanhe NOAA 16 DEB em tempo real com AllMySat

Download on the App Store